SCP
0 0 0 0 0 0 0 0 0 0 0 0 0 0 0 0 0 0 0 0 0 0 0 0 0 0 0 0 0 0 0 0 0 0 0 0 0 0 0 0 0 0 0 2 2
0 0 0 0 0 0 0 0 0 0 0 0 0 0 0 0 0 0 0 0 0 0 0 0 0 0 0 0 0 0 0 0 0 0 0 0 0 0 0 0 0 0 0 2 1
0 0 0 0 0 0 0 0 0 0 0 0 0 0 0 0 0 0 0 0 0 0 -0 0 0 0 0 0 0 0 0 0 0 0 0 0 0 0 0 0 0 0 0 1 1
0 0 0 0 0 0 0 0 0 0 0 0 0 0 0 0 0 0 0 0 0 0 0 0 0 0 0 0 0 0 0 0 0 0 0 0 0 0 0 0 0 0 0 0 1
0 0 0 0 0 0 0 0 0 0 0 0 0 0 0 0 0 0 0 -0 0 0 0 0 0 0 0 0 0 0 0 0 0 -0 0 0 0 0 0 0 0 0 0 0 0
0 0 0 0 0 0 0 0 0 0 0 0 0 0 0 -0 0 0 0 0 0 -0 -0 0 0 0 0 0 0 0 0 0 0 0 0 0 0 0 0 0 0 0 0 0 0
0 0 0 0 0 0 0 0 0 0 0 0 0 0 -0 0 0 0 0 0 0 -0 -0 -0 0 0 0 0 0 -0 0 0 0 0 0 0 0 0 0 0 0 0 0 0 0
0 0 0 0 0 0 0 0 0 0 0 0 0 0 0 0 0 -0 0 0 0 -0 -0 -0 -0 -0 0 0 0 -0 0 0 0 -0 0 0 0 0 0 0 0 0 0 0 0
0 0 0 0 0 0 0 0 0 0 0 0 0 0 -0 -0 0 -0 0 0 0 -0 -0 -0 -0 0 0 0 0 0 0 0 -0 0 0 0 0 0 0 0 0 0 0 0 0
0 0 0 0 0 0 0 0 0 0 0 0 0 0 0 0 0 0 0 0 0 0 0 0 -0 -0 0 0 0 0 -0 -0 -0 0 0 -0 0 0 0 0 0 0 0 0 0
0 0 0 0 0 0 0 0 0 0 0 0 0 0 0 0 0 0 0 0 0 0 0 0 -0 -0 -0 0 0 -0 -0 -0 0 0 -0 -0 -0 -0 0 0 0 0 0 0 0
0 0 0 0 0 0 0 0 0 0 0 0 -0 0 0 0 0 0 0 0 0 0 -0 0 -0 -0 0 0 0 0 0 0 0 0 -0 -0 -0 -0 -0 0 0 0 0 0 0
0 0 0 0 0 0 0 -0 -0 0 0 0 0 0 -0 0 0 0 0 0 0 0 -0 0 0 -0 0 0 0 0 0 0 0 0 0 0 -0 -0 -0 -0 -0 -0 -0 -0 0
0 0 0 0 0 0 0 0 0 0 0 0 0 0 0 0 0 0 0 -0 0 0 0 -0 0 -0 0 0 0 0 0 0 0 0 0 0 0 -0 0 0 0 0 0 0 0
0 0 0 0 0 0 0 0 0 0 0 0 0 0 0 0 0 0 0 -0 0 0 0 0 0 0 0 0 0 0 0 0 0 0 0 0 0 0 0 -0 0 0 0 0 0
0 0 0 0 0 0 0 0 0 0 0 0 0 0 0 -0 0 0 0 -0 0 0 0 0 0 0 0 0 0 0 -0 0 0 0 0 0 0 0 0 0 0 0 -0 0 0
0 0 0 0 0 0 0 0 0 0 0 0 0 0 0 0 0 0 0 -0 -0 0 0 0 0 0 0 0 0 -0 0 0 0 0 0 0 0 0 -0 0 0 0 0 0 0
0 0 0 0 0 0 0 0 0 0 -0 0 0 0 0 -0 0 0 0 0 -0 0 0 0 0 0 0 0 0 -0 0 0 0 0 0 0 0 0 0 0 0 0 0 0 0
0 0 0 0 0 0 0 -0 0 -0 0 -0 -0 0 -0 -0 0 0 0 0 -0 0 0 0 0 0 0 0 0 0 0 0 0 0 0 0 0 0 0 0 0 0 0 0 0
0 0 0 0 0 0 -0 -0 -0 0 -0 0 -0 0 0 0 0 0 0 0 0 0 0 0 0 0 0 0 0 0 0 0 0 0 0 0 0 0 0 0 0 0 0 0 0
0 0 0 -0 -0 0 0 -0 -0 -0 -0 0 0 0 0 0 0 0 0 0 -0 -0 0 0 0 0 0 0 0 0 0 0 0 0 0 0 0 0 0 0 0 0 0 0 0
0 0 0 0 0 0 -0 -0 -0 0 -0 0 0 -0 0 0 0 0 0 0 -0 -0 -0 0 0 0 0 0 0 0 0 0 0 0 0 0 0 0 0 0 0 0 0 0 0
0 0 -0 0 -0 -0 -0 -0 -0 0 0 -0 0 -0 -0 0 0 0 0 0 -0 -0 -0 0 0 0 0 0 0 0 0 0 0 0 0 0 0 0 0 0 0 0 0 0 0
-0 0 -0 0 -0 -0 0 0 0 0 0 -0 0 0 -0 -0 0 0 0 -0 0 0 0 0 0 0 0 0 0 0 0 0 0 0 0 0 0 0 0 0 0 0 0 0 0
-0 -0 -0 -0 0 -0 -0 0 0 0 0 0 0 -0 -0 -0 0 0 0 0 -0 0 0 0 0 0 0 0 0 0 0 0 0 0 0 0 0 0 -0 0 0 0 0 0 0
-0 0 0 -0 -0 -0 0 0 0 0 0 0 0 0 0 0 0 0 0 0 0 0 -0 -0 0 0 0 0 -0 0 0 0 0 0 0 0 0 0 0 0 0 0 0 0 0
-0 0 0 0 0 0 -0 0 -0 0 0 0 0 -0 0 0 0 0 0 0 0 0 -0 0 0 0 0 0 0 0 0 0 0 0 0 0 0 0 0 0 0 0 0 0 0
Wind_Speed_500mb
33 34 32 30 30 31 30 30 30 30 29 27 27 28 31 34 38 40 52 42 38 48 37 32 53 50 42 47 52 46 30 37 53 49 31 26 18 34 12 26 12 32 4 41 48
34 35 35 33 32 32 33 33 33 32 32 31 29 31 32 32 36 55 55 56 52 38 34 39 58 62 58 56 51 38 35 51 43 16 23 4 29 27 18 29 21 19 10 21 34
34 37 37 36 35 34 36 36 36 35 35 34 34 31 32 24 36 41 28 42 51 41 48 41 56 64 68 64 70 59 46 41 48 9 12 41 21 27 16 27 34 38 38 26 31
35 37 36 37 37 35 36 39 40 39 36 36 36 34 29 9 12 9 14 6 35 48 44 46 56 71 63 61 71 51 56 68 41 25 31 35 56 30 26 38 17 6 17 30 33
39 38 39 40 40 39 39 39 41 42 40 37 35 36 20 24 50 28 37 31 23 57 64 66 62 75 62 62 67 56 47 50 51 46 37 40 53 39 32 28 28 15 13 23 37
41 42 44 41 42 40 41 42 40 41 42 38 34 27 26 45 31 31 35 34 36 65 72 74 62 74 73 67 55 38 56 57 51 38 36 30 50 57 48 47 43 37 31 26 34
43 44 46 49 46 44 42 42 43 40 41 38 34 29 41 68 20 25 21 35 37 61 70 74 70 63 74 63 71 71 44 33 36 54 38 33 46 51 56 47 35 39 44 34 34
50 49 49 50 48 45 45 45 46 41 37 37 32 31 38 32 46 61 38 27 34 50 60 64 65 70 71 65 74 46 24 33 45 63 25 29 58 61 70 46 56 49 46 43 33
58 59 52 51 51 49 47 48 45 43 33 28 27 33 37 22 58 52 54 49 38 48 53 52 64 68 67 54 40 42 23 50 54 62 25 36 36 63 45 51 59 42 48 50 41
61 59 52 54 56 52 49 50 40 30 12 14 11 21 53 45 36 46 48 50 47 48 53 52 60 41 43 48 40 39 60 62 53 57 45 38 41 34 26 57 67 70 43 53 61
60 53 56 70 64 52 42 35 22 14 44 34 38 42 10 32 23 43 58 53 51 58 46 65 42 50 65 62 59 64 48 60 39 41 46 41 40 33 39 43 55 55 43 46 45
61 56 62 73 70 51 36 27 36 32 39 70 68 68 60 19 29 42 63 49 60 45 54 42 52 53 51 53 52 52 45 36 48 26 38 46 45 38 36 52 53 53 51 38 37
48 59 70 73 70 37 29 47 35 29 17 50 81 83 78 49 39 55 75 67 53 54 58 45 55 54 50 48 52 46 40 23 42 28 28 33 45 41 44 48 65 66 64 56 36
67 68 68 64 43 16 24 11 16 22 11 23 54 64 75 52 41 58 77 72 40 57 59 50 50 60 46 55 49 45 36 30 34 32 30 37 18 44 39 43 40 54 37 33 31
53 53 51 37 41 43 33 22 20 18 13 3 52 18 61 73 39 61 78 75 50 39 50 50 48 57 54 51 48 39 37 35 23 32 27 46 20 24 47 39 40 36 48 24 24
59 58 53 46 39 40 26 24 19 12 22 23 27 36 51 77 48 62 74 76 49 44 47 47 49 43 53 40 40 38 38 29 31 28 29 34 29 22 26 34 47 49 43 32 19
65 68 63 54 64 31 22 22 10 14 35 32 47 46 57 53 52 59 59 60 49 46 42 49 42 46 42 46 47 42 26 22 24 26 24 39 32 23 36 35 34 33 34 22 16
74 70 45 40 28 27 30 14 21 40 67 24 22 50 48 57 56 58 59 52 56 49 35 44 41 48 36 44 36 49 41 26 26 27 29 22 19 27 25 28 16 35 26 16 14
76 47 43 28 23 34 28 22 25 57 24 43 30 44 38 55 40 51 63 56 52 47 35 41 38 44 40 38 41 47 41 49 25 20 16 27 20 13 27 26 25 28 24 16 13
59 46 13 4 25 40 16 41 47 49 26 45 34 26 41 30 41 49 52 56 54 50 47 41 30 51 41 37 40 43 41 37 22 24 26 27 32 23 33 30 26 24 24 16 14
39 27 11 3 6 33 20 32 50 73 5 27 20 9 21 52 28 42 44 32 49 51 42 29 34 44 45 36 39 34 38 35 27 25 17 21 11 43 38 37 31 22 21 15 12
27 11 6 22 5 6 24 42 59 48 45 38 9 17 25 39 46 48 45 30 67 45 48 23 15 34 47 35 34 37 33 40 22 32 21 13 12 10 33 28 32 25 15 15 9
27 28 13 10 5 4 20 45 48 52 40 15 11 13 17 5 7 39 44 42 73 54 44 19 12 26 29 7 18 26 37 30 33 16 21 19 17 17 18 27 30 27 20 16 6
16 9 9 3 13 7 14 25 25 41 35 21 4 7 3 11 20 29 46 46 68 49 23 17 4 33 21 34 34 40 33 38 35 23 17 14 16 11 14 22 23 23 19 5 6
7 8 15 13 14 27 23 16 29 18 17 25 5 5 8 10 35 22 49 43 60 49 26 20 13 5 9 23 39 44 22 29 28 35 25 15 15 23 39 29 31 21 10 7 12
21 9 16 36 32 32 14 8 16 16 9 8 11 13 14 7 23 23 35 46 50 53 47 36 25 39 11 33 31 34 40 36 32 26 30 9 9 7 8 2 3 8 2 15 14
30 30 11 28 23 18 13 14 23 10 16 3 26 16 16 12 18 17 21 15 33 40 38 26 16 19 14 16 16 11 19 18 19 16 16 19 16 7 8 7 4 8 8 10 11
Wind_Direction_500mb
320 319 314 309 304 302 304 302 303 303 306 307 307 306 301 292 288 277 253 241 237 235 226 215 216 220 225 235 223 224 242 236 231 233 256 231 214 218 254 281 218 193 341 95 147
313 310 308 302 300 299 298 298 296 297 297 301 303 305 307 297 292 271 260 255 247 238 223 210 210 210 223 226 229 224 237 220 241 252 248 272 219 220 209 227 232 220 157 147 156
313 311 311 304 297 295 293 290 290 291 292 292 296 301 305 308 294 269 253 245 229 207 209 219 214 209 216 221 225 209 230 232 238 359 234 300 257 254 238 252 224 208 195 178 175
318 316 315 313 306 300 294 288 287 286 285 288 290 293 301 280 258 197 301 143 203 203 210 212 212 216 216 221 218 228 215 250 259 244 249 276 309 238 259 246 348 206 317 186 191
321 318 315 313 312 307 302 297 290 284 281 281 284 288 296 239 245 253 264 288 226 200 200 203 206 213 216 218 219 227 224 225 261 219 243 270 290 294 247 267 280 227 237 239 205
324 316 309 305 303 302 300 301 296 288 280 277 275 274 254 256 258 243 241 227 213 200 199 205 206 210 218 220 221 214 227 239 251 263 248 240 260 296 280 252 264 258 248 226 217
330 324 314 308 305 303 299 293 292 289 283 273 267 251 247 242 243 234 220 213 211 203 197 205 210 213 215 216 212 205 207 217 235 255 253 252 262 251 266 267 247 265 244 238 218
327 324 323 317 303 299 300 297 292 292 283 272 258 234 247 249 252 236 216 217 210 206 201 204 207 219 218 229 215 206 180 221 229 235 222 176 243 244 249 305 293 240 256 226 217
322 322 319 323 319 304 300 293 293 295 281 267 216 206 258 269 227 222 217 214 197 201 201 203 206 220 216 226 216 176 197 227 227 206 156 195 240 234 271 289 288 263 229 254 221
319 318 318 318 318 311 300 298 302 280 244 161 219 200 250 230 234 211 199 196 187 188 192 203 210 215 228 215 213 197 210 224 218 186 180 199 242 222 256 266 274 283 245 221 222
319 315 315 318 313 306 305 311 248 212 204 204 193 217 303 217 201 199 186 184 182 179 191 194 206 208 214 212 222 203 220 221 246 190 187 213 226 203 219 259 260 287 268 252 239
310 303 310 318 316 300 286 254 251 297 276 238 244 238 252 271 201 197 179 178 181 183 201 184 209 212 214 223 230 237 234 215 226 194 205 205 220 229 214 213 236 258 265 261 240
300 303 309 314 319 311 267 257 262 281 270 269 237 230 223 215 227 188 185 191 190 189 202 197 196 215 212 214 221 230 240 200 227 159 209 240 213 218 210 219 224 224 243 224 235
292 298 304 312 324 295 289 322 275 247 271 253 211 224 215 208 223 206 196 193 192 197 195 210 200 198 204 219 212 214 220 216 207 182 209 207 230 190 200 205 208 252 225 226 233
315 313 314 314 288 285 267 314 305 192 263 289 187 187 186 198 168 193 193 206 201 194 195 203 210 190 209 208 204 224 197 225 223 222 251 186 220 236 188 202 205 212 235 219 214
314 310 307 298 277 275 281 269 282 231 229 234 146 180 179 194 203 174 188 212 218 212 199 210 209 197 208 202 210 218 210 192 227 228 226 223 209 193 185 203 186 195 213 200 175
313 308 298 282 267 263 256 250 234 239 231 241 163 177 182 189 199 167 186 204 209 201 194 217 191 202 200 197 206 205 187 195 202 217 228 204 226 226 189 174 187 191 167 152 183
321 317 309 278 271 242 216 204 237 228 237 69 181 173 187 181 196 177 183 195 216 204 186 200 187 193 195 207 185 203 195 214 188 206 213 220 212 215 145 110 76 126 137 166 200
328 325 303 283 246 205 193 216 225 238 284 246 234 171 191 180 181 181 187 197 201 205 194 202 185 190 196 196 197 192 216 232 279 289 238 161 107 84 116 143 162 147 142 150 140
326 321 327 186 334 191 216 239 237 257 284 291 206 152 182 176 175 191 189 196 199 213 228 194 203 178 181 212 215 204 202 218 236 256 221 162 167 182 169 165 164 143 148 148 139
332 313 23 80 170 169 209 223 243 255 351 305 321 25 219 172 176 184 183 189 208 206 223 233 222 172 175 205 196 200 206 220 223 220 217 239 161 135 166 167 160 160 151 153 140
326 297 13 330 190 225 240 255 263 264 255 262 7 65 321 190 187 193 184 183 216 209 213 189 227 188 181 185 221 206 214 201 220 215 241 254 84 20 129 146 137 150 152 129 125
310 311 326 298 295 265 280 284 274 262 256 213 267 125 240 197 219 176 188 189 191 216 206 161 156 204 161 169 212 231 209 221 215 230 224 224 142 147 140 142 160 152 139 155 159
307 331 335 307 251 256 285 298 298 280 240 171 97 103 264 345 289 211 164 190 190 179 179 160 197 208 192 194 190 208 215 211 213 221 229 211 130 144 149 160 155 169 163 186 185
336 321 350 306 326 296 338 295 308 280 49 23 102 137 149 221 240 171 163 177 174 168 178 177 225 15 301 270 190 202 188 222 164 207 229 233 260 189 201 178 190 120 155 223 193
353 351 304 291 305 335 337 304 295 101 56 37 83 92 105 36 309 166 177 159 167 170 178 191 181 174 135 144 188 180 200 196 212 217 218 244 256 72 99 226 245 257 227 208 182
350 339 308 296 357 344 339 290 306 24 66 149 136 115 88 254 352 53 104 126 150 176 174 187 184 178 138 135 128 186 182 196 204 220 256 227 236 220 140 210 159 153 170 156 143
Wind_Speed_850mb
33 34 32 30 30 31 30 30 30 30 29 27 27 28 31 34 38 40 52 42 38 48 37 32 53 50 42 47 52 46 30 37 53 49 31 26 18 34 12 26 12 32 4 41 48
34 35 35 33 32 32 33 33 33 32 32 31 29 31 32 32 36 55 55 56 52 38 34 39 58 62 58 56 51 38 35 51 43 16 23 4 29 27 18 29 21 19 10 21 34
34 37 37 36 35 34 36 36 36 35 35 34 34 31 32 24 36 41 28 42 51 41 48 41 56 64 68 64 70 59 46 41 48 9 12 41 21 27 16 27 34 38 38 26 31
35 37 36 37 37 35 36 39 40 39 36 36 36 34 29 9 12 9 14 6 35 48 44 46 56 71 63 61 71 51 56 68 41 25 31 35 56 30 26 38 17 6 17 30 33
39 38 39 40 40 39 39 39 41 42 40 37 35 36 20 24 50 28 37 31 23 57 64 66 62 75 62 62 67 56 47 50 51 46 37 40 53 39 32 28 28 15 13 23 37
41 42 44 41 42 40 41 42 40 41 42 38 34 27 26 45 31 31 35 34 36 65 72 74 62 74 73 67 55 38 56 57 51 38 36 30 50 57 48 47 43 37 31 26 34
43 44 46 49 46 44 42 42 43 40 41 38 34 29 41 68 20 25 21 35 37 61 70 74 70 63 74 63 71 71 44 33 36 54 38 33 46 51 56 47 35 39 44 34 34
50 49 49 50 48 45 45 45 46 41 37 37 32 31 38 32 46 61 38 27 34 50 60 64 65 70 71 65 74 46 24 33 45 63 25 29 58 61 70 46 56 49 46 43 33
58 59 52 51 51 49 47 48 45 43 33 28 27 33 37 22 58 52 54 49 38 48 53 52 64 68 67 54 40 42 23 50 54 62 25 36 36 63 45 51 59 42 48 50 41
61 59 52 54 56 52 49 50 40 30 12 14 11 21 53 45 36 46 48 50 47 48 53 52 60 41 43 48 40 39 60 62 53 57 45 38 41 34 26 57 67 70 43 53 61
60 53 56 70 64 52 42 35 22 14 44 34 38 42 10 32 23 43 58 53 51 58 46 65 42 50 65 62 59 64 48 60 39 41 46 41 40 33 39 43 55 55 43 46 45
61 56 62 73 70 51 36 27 36 32 39 70 68 68 60 19 29 42 63 49 60 45 54 42 52 53 51 53 52 52 45 36 48 26 38 46 45 38 36 52 53 53 51 38 37
48 59 70 73 70 37 29 47 35 29 17 50 81 83 78 49 39 55 75 67 53 54 58 45 55 54 50 48 52 46 40 23 42 28 28 33 45 41 44 48 65 66 64 56 36
67 68 68 64 43 16 24 11 16 22 11 23 54 64 75 52 41 58 77 72 40 57 59 50 50 60 46 55 49 45 36 30 34 32 30 37 18 44 39 43 40 54 37 33 31
53 53 51 37 41 43 33 22 20 18 13 3 52 18 61 73 39 61 78 75 50 39 50 50 48 57 54 51 48 39 37 35 23 32 27 46 20 24 47 39 40 36 48 24 24
59 58 53 46 39 40 26 24 19 12 22 23 27 36 51 77 48 62 74 76 49 44 47 47 49 43 53 40 40 38 38 29 31 28 29 34 29 22 26 34 47 49 43 32 19
65 68 63 54 64 31 22 22 10 14 35 32 47 46 57 53 52 59 59 60 49 46 42 49 42 46 42 46 47 42 26 22 24 26 24 39 32 23 36 35 34 33 34 22 16
74 70 45 40 28 27 30 14 21 40 67 24 22 50 48 57 56 58 59 52 56 49 35 44 41 48 36 44 36 49 41 26 26 27 29 22 19 27 25 28 16 35 26 16 14
76 47 43 28 23 34 28 22 25 57 24 43 30 44 38 55 40 51 63 56 52 47 35 41 38 44 40 38 41 47 41 49 25 20 16 27 20 13 27 26 25 28 24 16 13
59 46 13 4 25 40 16 41 47 49 26 45 34 26 41 30 41 49 52 56 54 50 47 41 30 51 41 37 40 43 41 37 22 24 26 27 32 23 33 30 26 24 24 16 14
39 27 11 3 6 33 20 32 50 73 5 27 20 9 21 52 28 42 44 32 49 51 42 29 34 44 45 36 39 34 38 35 27 25 17 21 11 43 38 37 31 22 21 15 12
27 11 6 22 5 6 24 42 59 48 45 38 9 17 25 39 46 48 45 30 67 45 48 23 15 34 47 35 34 37 33 40 22 32 21 13 12 10 33 28 32 25 15 15 9
27 28 13 10 5 4 20 45 48 52 40 15 11 13 17 5 7 39 44 42 73 54 44 19 12 26 29 7 18 26 37 30 33 16 21 19 17 17 18 27 30 27 20 16 6
16 9 9 3 13 7 14 25 25 41 35 21 4 7 3 11 20 29 46 46 68 49 23 17 4 33 21 34 34 40 33 38 35 23 17 14 16 11 14 22 23 23 19 5 6
7 8 15 13 14 27 23 16 29 18 17 25 5 5 8 10 35 22 49 43 60 49 26 20 13 5 9 23 39 44 22 29 28 35 25 15 15 23 39 29 31 21 10 7 12
21 9 16 36 32 32 14 8 16 16 9 8 11 13 14 7 23 23 35 46 50 53 47 36 25 39 11 33 31 34 40 36 32 26 30 9 9 7 8 2 3 8 2 15 14
30 30 11 28 23 18 13 14 23 10 16 3 26 16 16 12 18 17 21 15 33 40 38 26 16 19 14 16 16 11 19 18 19 16 16 19 16 7 8 7 4 8 8 10 11
Wind_Direction_850mb
320 319 314 309 304 302 304 302 303 303 306 307 307 306 301 292 288 277 253 241 237 235 226 215 216 220 225 235 223 224 242 236 231 233 256 231 214 218 254 281 218 193 341 95 147
313 310 308 302 300 299 298 298 296 297 297 301 303 305 307 297 292 271 260 255 247 238 223 210 210 210 223 226 229 224 237 220 241 252 248 272 219 220 209 227 232 220 157 147 156
313 311 311 304 297 295 293 290 290 291 292 292 296 301 305 308 294 269 253 245 229 207 209 219 214 209 216 221 225 209 230 232 238 359 234 300 257 254 238 252 224 208 195 178 175
318 316 315 313 306 300 294 288 287 286 285 288 290 293 301 280 258 197 301 143 203 203 210 212 212 216 216 221 218 228 215 250 259 244 249 276 309 238 259 246 348 206 317 186 191
321 318 315 313 312 307 302 297 290 284 281 281 284 288 296 239 245 253 264 288 226 200 200 203 206 213 216 218 219 227 224 225 261 219 243 270 290 294 247 267 280 227 237 239 205
324 316 309 305 303 302 300 301 296 288 280 277 275 274 254 256 258 243 241 227 213 200 199 205 206 210 218 220 221 214 227 239 251 263 248 240 260 296 280 252 264 258 248 226 217
330 324 314 308 305 303 299 293 292 289 283 273 267 251 247 242 243 234 220 213 211 203 197 205 210 213 215 216 212 205 207 217 235 255 253 252 262 251 266 267 247 265 244 238 218
327 324 323 317 303 299 300 297 292 292 283 272 258 234 247 249 252 236 216 217 210 206 201 204 207 219 218 229 215 206 180 221 229 235 222 176 243 244 249 305 293 240 256 226 217
322 322 319 323 319 304 300 293 293 295 281 267 216 206 258 269 227 222 217 214 197 201 201 203 206 220 216 226 216 176 197 227 227 206 156 195 240 234 271 289 288 263 229 254 221
319 318 318 318 318 311 300 298 302 280 244 161 219 200 250 230 234 211 199 196 187 188 192 203 210 215 228 215 213 197 210 224 218 186 180 199 242 222 256 266 274 283 245 221 222
319 315 315 318 313 306 305 311 248 212 204 204 193 217 303 217 201 199 186 184 182 179 191 194 206 208 214 212 222 203 220 221 246 190 187 213 226 203 219 259 260 287 268 252 239
310 303 310 318 316 300 286 254 251 297 276 238 244 238 252 271 201 197 179 178 181 183 201 184 209 212 214 223 230 237 234 215 226 194 205 205 220 229 214 213 236 258 265 261 240
300 303 309 314 319 311 267 257 262 281 270 269 237 230 223 215 227 188 185 191 190 189 202 197 196 215 212 214 221 230 240 200 227 159 209 240 213 218 210 219 224 224 243 224 235
292 298 304 312 324 295 289 322 275 247 271 253 211 224 215 208 223 206 196 193 192 197 195 210 200 198 204 219 212 214 220 216 207 182 209 207 230 190 200 205 208 252 225 226 233
315 313 314 314 288 285 267 314 305 192 263 289 187 187 186 198 168 193 193 206 201 194 195 203 210 190 209 208 204 224 197 225 223 222 251 186 220 236 188 202 205 212 235 219 214
314 310 307 298 277 275 281 269 282 231 229 234 146 180 179 194 203 174 188 212 218 212 199 210 209 197 208 202 210 218 210 192 227 228 226 223 209 193 185 203 186 195 213 200 175
313 308 298 282 267 263 256 250 234 239 231 241 163 177 182 189 199 167 186 204 209 201 194 217 191 202 200 197 206 205 187 195 202 217 228 204 226 226 189 174 187 191 167 152 183
321 317 309 278 271 242 216 204 237 228 237 69 181 173 187 181 196 177 183 195 216 204 186 200 187 193 195 207 185 203 195 214 188 206 213 220 212 215 145 110 76 126 137 166 200
328 325 303 283 246 205 193 216 225 238 284 246 234 171 191 180 181 181 187 197 201 205 194 202 185 190 196 196 197 192 216 232 279 289 238 161 107 84 116 143 162 147 142 150 140
326 321 327 186 334 191 216 239 237 257 284 291 206 152 182 176 175 191 189 196 199 213 228 194 203 178 181 212 215 204 202 218 236 256 221 162 167 182 169 165 164 143 148 148 139
332 313 23 80 170 169 209 223 243 255 351 305 321 25 219 172 176 184 183 189 208 206 223 233 222 172 175 205 196 200 206 220 223 220 217 239 161 135 166 167 160 160 151 153 140
326 297 13 330 190 225 240 255 263 264 255 262 7 65 321 190 187 193 184 183 216 209 213 189 227 188 181 185 221 206 214 201 220 215 241 254 84 20 129 146 137 150 152 129 125
310 311 326 298 295 265 280 284 274 262 256 213 267 125 240 197 219 176 188 189 191 216 206 161 156 204 161 169 212 231 209 221 215 230 224 224 142 147 140 142 160 152 139 155 159
307 331 335 307 251 256 285 298 298 280 240 171 97 103 264 345 289 211 164 190 190 179 179 160 197 208 192 194 190 208 215 211 213 221 229 211 130 144 149 160 155 169 163 186 185
336 321 350 306 326 296 338 295 308 280 49 23 102 137 149 221 240 171 163 177 174 168 178 177 225 15 301 270 190 202 188 222 164 207 229 233 260 189 201 178 190 120 155 223 193
353 351 304 291 305 335 337 304 295 101 56 37 83 92 105 36 309 166 177 159 167 170 178 191 181 174 135 144 188 180 200 196 212 217 218 244 256 72 99 226 245 257 227 208 182
350 339 308 296 357 344 339 290 306 24 66 149 136 115 88 254 352 53 104 126 150 176 174 187 184 178 138 135 128 186 182 196 204 220 256 227 236 220 140 210 159 153 170 156 143